Location: Bacharowice
(49.9333°N, 19.5833°E)
Time: 08:03:24
(UTC+00:00)

COSMOS 2455 - Pass Details

Date: 11 May 2021
Orbit: 902 x 908 km, 67.1° (Epoch: 21 June)

Event Time Altitude Azimuth Distance (km) Brightness Sun altitude
Rises 22:50:24 0° 324° (NW) 3,544 6.7 -21.9°
Reaches altitude 10° 22:53:05 10° 332° (NNW) 2,601 6.0 -21.9°
Maximum altitude 22:58:46 41° 42° (NE) 1,294 4.0 -21.8°
Drops below altitude 10° 23:04:26 10° 112° (ESE) 2,591 5.1 -21.7°
Enters shadow 23:06:39 - 118° (ESE) 3,369 5.6 -21.6°
